Location: Stanford
(52.2833°N, 2.4333°W)
Time: 20:15:30
(UTC+00:00)

Landsat 5 - Pass Details

Date: 22 January 2021
Orbit: 528 x 654 km, 98.2° (Epoch: 27 February)

Event Time Altitude Azimuth Distance (km) Brightness Sun altitude
Rises 17:44:42 0° 13° (NNE) 2,765 6.6 -9.9°
Reaches altitude 10° 17:46:53 10° 11° (N) 1,846 5.7 -10.2°
Maximum altitude 17:50:50 71° 288° (WNW) 579 3.6 -10.8°
Drops below altitude 10° 17:54:39 10° 204° (SSW) 1,784 6.5 -11.3°
Sets 17:56:44 0° 203° (SSW) 2,663 7.4 -11.7°
